Regional Weather Roundup
Issued by NWS State College, PA

Home | Current Version | Previous Version | Text Only | Print | Product List | Glossary Off
Versions: 1 2 3 4 5 6 7 8 9 10 11 12 13 14 15 16 17 18 19 20 21 22 23 24 25 26 27 28 29 30 31 32 33 34 35 36 37 38 39 40 41 42 43 44 45 46 47 48 49 50

000
ASUS41 KCTP 280910
RWRCTP

REGIONAL WEATHER ROUNDUP
NATIONAL WEATHER SERVICE STATE COLLEGE PA
400 AM EST WED JAN 28 2015

Note: "fair" indicates few or no clouds below 12,000 feet with no
significant weather and/or obstructions to visibility.

* = STATION THAT DOES NOT REPORT PRECIPITATION /E.G. RAIN...SNOW...ETC/
    THUNDER OR FOG.

PAZ002>004-007>009-013>016-020>023-029>032-281000-
WESTERN PENNSYLVANIA

CITY           SKY/WX    TMP DP  RH WIND       PRES   REMARKS
ERIE           PTCLDY     2  -2  83 S5        30.20R WCI  -8
MEADVILLE      PTCLDY     8   5  87 W7        30.14R FOG     WCI  -3
FRANKLIN*      CLOUDY     9   3  78 W5        30.14R WCI   0
NEW CASTLE     FAIR       5   2  88 CALM      30.21S
BEAVER COUNTY  NOT AVBL
BUTLER*        MOCLDY    12   9  85 SW3       30.18R
PITTSBURGH INT FLURRIES  13  10  88 W6        30.18R WCI   4
PITTSBURGH     CLEAR     12   7  80 W8        30.17R WCI   0
INDIANA*       CLEAR      3   0  85 CALM      30.18R
LATROBE        CLEAR      7   5  92 CALM      30.20R
WASHINGTON CO* CLOUDY    14   9  79 MISG      30.21R
$$

PAZ004>006-010>012-017>019-024>028-033>037-041-042-045-046-049>053-281000-
CENTRAL PENNSYLVANIA

CITY           SKY/WX    TMP DP  RH WIND       PRES   REMARKS
BRADFORD       PTCLDY     3  -1  83 W7        30.01R WCI  -9
DUBOIS         PTCLDY     6   3  87 W10       30.06R WCI  -9
CLEARFIELD     PTCLDY     6   3  87 SW7       30.07R WCI  -6
JOHNSTOWN      LGT SNOW   8   5  87 W9        30.04R FOG     WCI  -5
ALTOONA        CLEAR     12   5  73 NW15      30.06S WCI  -4
STATE COLLEGE  PTCLDY    11   4  71 W7        30.07R WCI   0
WILLIAMSPORT   CLEAR     12   1  61 W12       30.07R WCI  -2
SELINSGROVE    CLEAR     12   1  61 CALM      30.07R
FT INDIANTOWN  CLEAR     17   0  47 NW15G24   30.03R WCI   2
CAPITAL CITY   CLEAR     18   2  49 W8        30.07R WCI   8
HARRISBURG     PTCLDY    15   3  59 NW9       30.06R WCI   3
YORK           CLEAR     17   3  54 NW8       30.04R WCI   7
$$

PAZ038>040-043-044-047-048-054-055-060>062-067>071-281000-
EASTERN PENNSYLVANIA

CITY           SKY/WX    TMP DP  RH WIND       PRES   REMARKS
SCRANTON       CLEAR     11   0  61 NW5       29.98R WCI   3
MOUNT POCONO   CLEAR      8  -2  63 NW17G30   29.81R WCI -10
ALLENTOWN      CLEAR     17  -1  45 NW13G24   29.98R WCI   4
QUAKERTOWN*    NOT AVBL
READING        PTCLDY    17   0  47 NW20G31   30.01R WCI   1
LANCASTER      PTCLDY    16   1  51 NW17      30.02R WCI   0
COATESVILLE    SUNNY     18   3  53 NW17G24   29.98R WCI   2
POTTSTOWN      CLEAR     16   0  49 NW8       30.00R WCI   5
BLUE BELL      CLEAR     19   5  53 NW7       29.96S WCI  10
DOYLESTOWN     CLEAR     15   3  59 NW8G21    29.94R WCI   4
WILLOW GROVE   NOT AVBL
NORTH PHILA    CLEAR     19   2  47 NW10      29.99R WCI   7
PHILADELPHIA   PTCLDY    20   4  50 NW9       30.00S WCI   9
$$


USA.gov is the U.S. government's official web portal to all federal, state and local government web resources and services.